VE3COE Weather Reports


Display with metric or nautical units.
time (UTC)temp
F
wind
direction
speed
MPH
gust
MPH
rain 1hr
in
rain 24hr
in
rain mn
in
humidity
%
barometer
mb
20260506042522 46 106 4.0 8.0 0.00 0.02 0.00 77 1006.2
20260506035522 46 81 3.0 9.0 0.00 0.02 0.02 75 1005.9
20260506032521 47 261 2.0 7.0 0.00 0.02 0.02 71 1006.0
20260506030902 46 81 1.0 7.0 0.00 0.02 0.02 70 1006.0
20260506022522 46 54 2.0 7.0 0.00 0.02 0.02 69 1006.0
20260506015521 46 71 1.0 5.0 0.00 0.02 0.02 71 1005.9
20260506012521 46 41 1.0 7.0 0.00 0.02 0.02 69 1005.6
20260506012256 47 261 3.0 8.0 0.00 0.02 0.02 70 1005.0
20260506002519 49 99 2.0 9.0 0.00 0.02 0.02 70 1004.8
20260505235519 50 82 2.0 6.0 0.00 0.02 0.02 68 1004.7
20260505232519 49 93 1.0 7.0 0.00 0.02 0.02 71 1004.6
20260505225519 49 120 1.0 6.0 0.00 0.02 0.02 71 1004.8
20260505222523 49 261 2.0 8.0 0.00 0.02 0.02 66 1005.0
20260505215525 49 261 3.0 13.0 0.00 0.02 0.02 73 1005.2
20260505212516 48 261 4.0 12.0 0.00 0.02 0.02 75 1005.0
20260505205517 49 261 5.0 11.0 0.00 0.02 0.02 75 1004.8
20260505202516 49 261 5.0 10.0 0.00 0.02 0.02 78 1004.7
20260505195517 55 261 1.0 3.0 0.00 0.02 0.02 67 1004.6
20260505192514 53 330 2.0 4.0 0.00 0.02 0.02 65 1004.4
20260505185515 49 261 1.0 7.0 0.00 0.02 0.02 73 1004.3
20260505182514 47 261 4.0 9.0 0.00 0.02 0.02 74 1004.2
20260505175514 47 261 5.0 8.0 0.00 0.02 0.02 76 1004.3
20260505172521 46 261 3.0 6.0 0.00 0.02 0.02 78 1004.1
20260505165512 45 261 1.0 3.0 0.00 0.02 0.02 81 1004.2
20260505162510 45 0 1.0 5.0 0.00 0.02 0.02 82 1004.3
20260505152509 44 261 2.0 6.0 0.00 0.02 0.02 79 1004.0
20260505122507 44 261 3.0 11.0 0.00 0.02 0.02 82 1001.6
20260505115507 44 261 1.0 8.0 0.00 0.02 0.02 83 1000.8
20260505112505 44 261 5.0 14.0 0.00 0.02 0.02 84 1000.0
20260505095503 44 29 5.0 14.0 0.00 0.02 0.02 87 998.3
20260505092503 44 51 3.0 11.0 0.00 0.02 0.02 90 997.4
20260505085504 44 261 5.0 12.0 0.00 0.02 0.02 91 997.3
20260505083906 45 0 3.0 9.0 0.00 0.02 0.02 91 996.4
20260505075509 46 0 2.0 9.0 0.00 0.02 0.02 91 996.2
20260505072503 48 0 2.0 6.0 0.00 0.02 0.02 89 996.3
20260505065502 51 261 1.0 3.0 0.01 0.02 0.02 88 996.1
20260505062502 53 252 2.0 8.0 0.01 0.02 0.02 90 996.2
20260505055503 51 261 1.0 8.0 0.01 0.01 0.02 90 995.5